Regional Weather Roundup
Issued by NWS

Home | Current Version | Previous Version | Text Only | Print | Product List | Glossary Off
Versions: 1 2 3 4 5 6 7 8 9 10 11 12 13 14 15 16 17 18 19 20 21 22 23 24 25 26 27 28 29 30 31 32 33 34 35 36 37 38 39 40 41 42 43 44 45 46 47

000
ASUS45 KTFX 042210
RWRMT
MONTANA REGIONAL WEATHER ROUNDUP
NATIONAL WEATHER SERVICE GREAT FALLS MT
400 PM MDT TUE AUG 04 2015

NOTE: "FAIR" INDICATES FEW OR NO CLOUDS BELOW 12000 FEET WITH NO
SIGNIFICANT WEATHER AND/OR OBSTRUCTIONS TO VISIBILITY.

MTZ001>007-043-042300-
WEST OF THE DIVIDE

CITY           SKY/WX    TMP DP  RH WIND       PRES   REMARKS
KALISPELL      PTCLDY    82  44  26 S10       29.88F
MISSOULA       MOSUNNY   86  40  19 VRB7      29.92F
BUTTE          PTSUNNY   76  41  28 NW14      30.07R
MULLAN PASS    MOSUNNY   69  38  32 VRB5      30.11F
DEER LODGE       N/A     81  39  22 CALM      30.03F
EUREKA           N/A     84  41  21 SE8       29.85F
HAMILTON         N/A     84  43  23 SE3       29.94F
LIBBY            N/A     88  39  18 S8G18     29.87S
PLAINS           N/A     88  43  20 W12       29.90F
$$

MTZ008-052>055-042300-
SOUTHWEST MONTANA

CITY           SKY/WX    TMP DP  RH WIND       PRES   REMARKS
BOZEMAN        CLOUDY    74  44  34 NW8       30.00S
DILLON         MOSUNNY   79  48  33 W6        30.00F
W YELLOWSTONE  MOSUNNY   73  45  35 SW14G24   30.13F
$$

MTZ009-010-012-014-046-048-049-054-042300-
EAST SLOPES AND CENTRAL MONTANA

CITY           SKY/WX    TMP DP  RH WIND       PRES   REMARKS
CUT BANK       CLOUDY    80  44  27 NW6       29.93F
GREAT FALLS    PTSUNNY   81  43  26 E6        29.92S
MALMSTROM AFB  PTSUNNY   83  44  25 E9        29.91F
HELENA         CLOUDY    78  48  34 SE13G20   29.94S
CONRAD           N/A     81  54  39 W12       29.96F
$$

MTZ011-013-016-021-045-047-050-051-042300-
NORTH CENTRAL MONTANA

CITY           SKY/WX    TMP DP  RH WIND       PRES   REMARKS
HAVRE          CLOUDY    80  56  43 S13       29.89F
LEWISTOWN      CLOUDY    67  55  65 SE8       30.02F
CHINOOK          N/A     81  55  41 SW8       29.88F
FORT BENTON      N/A     79  52  38 E14G22    29.90F
$$

MTZ017>020-022>027-061-062-042300-
NORTHEAST MONTANA

CITY           SKY/WX    TMP DP  RH WIND       PRES   REMARKS
GLASGOW        PTSUNNY   86  53  32 NW10      29.82S
JORDAN           N/A     88  49  25 NW24      29.86R
SIDNEY         SUNNY    N/A N/A N/A SE12G23   29.85F
WOLF POINT     PTSUNNY   93  52  24 SE12G17   29.82F HX  90
MALTA            N/A     86  54  33 SW20      29.82F
PLENTYWOOD       N/A     88  52  29 S10G17    29.89
POPLAR           N/A     91  52  25 SE8G16    29.84F
$$

MTZ028>42-056>058-042300-
SOUTHCENTRAL AND SOUTHEAST MONTANA

CITY           SKY/WX    TMP DP  RH WIND       PRES   REMARKS
BAKER          MOSUNNY   90  54  29 SE15G28   29.91F
BILLINGS       PTSUNNY   76  51  41 NW13      29.98F
LIVINGSTON     MOSUNNY   69  54  58 E8        30.02R
MILES CITY     TSTM      78  58  49 VRB5      29.91R
EKALAKA          N/A     86  52  30 E15       29.91F
FORSYTH          N/A     75  55  50 W15       29.90S
LAUREL           N/A     74  56  53 NW3       29.98F
$$

REGIONAL REPORTS...DAKOTAS

CITY           SKY/WX    TMP DP  RH WIND       PRES   REMARKS
WILLISTON      SUNNY     88  52  29 SE14      29.90F
MINOT          SUNNY     83  48  29 E8        29.95F
DICKINSON      SUNNY     85  56  37 SE16      29.93F
CROSBY         FAIR      84  50  30 SE13G20   29.93F
BISMARCK       SUNNY     86  54  33 MISG      29.95F
GRAND FORKS    SUNNY     77  54  44 VRB7G16   29.99F
FARGO          SUNNY     81  51  35 N6        29.99S
BUFFALO SD       N/A     87  58  37 SE23G31   29.86F
RAPID CITY     PTSUNNY   85  60  42 S12G21    29.94F
$$

REGIONAL REPORTS...WYOMING/IDAHO/WASHINGTON

CITY           SKY/WX    TMP DP  RH WIND       PRES   REMARKS
GILLETTE       RAIN      66  58  75 W18       29.97F
SHERIDAN       CLOUDY    71  56  58 NW10      30.03S
BUFFALO WY     CLOUDY    65  58  78 NW10      30.08S
CODY           MOSUNNY   72  55  56 N13       30.06F
YELLOWSTONE LA   N/A     69  38  32 W8        30.24F
IDAHO FALLS    MOSUNNY   86  48  26 S15G25    30.03F
SALMON         MOSUNNY   84  43  23 S5        29.92S
BOISE          SUNNY     90  47  22 VRB5      29.91F
SPOKANE        PTSUNNY   84  41  21 SW13      29.89F
$$

REGIONAL REPORTS...ALBERTA

CITY           SKY/WX    TMP DP  RH WIND       PRES   REMARKS
CALGARY        PTSUNNY   73  54  49 NE10      29.91F
LETHBRIDGE     PTSUNNY   81  48  32 VRB6      29.88F
MEDICINE HAT   CLOUDY    82  52  34 W6        29.85R
WATERTON GATE    N/A     79  43  27 SW14G24     N/A
CARDSTON         N/A     82  48  30 S5          N/A
MILK RIVER       N/A     81  46  30 E2          N/A
ONEFOUR          N/A     79  48  34 NW12        N/A
$$

REGIONAL REPORTS...SASKATCHEWAN

CITY           SKY/WX    TMP DP  RH WIND       PRES   REMARKS
SWIFT CURRENT  MOSUNNY   84  57  39 S14G22    29.83F
REGINA         PTSUNNY   82  54  36 SE18G24   29.91F
SASKATOON      CLOUDY    77  55  47 E21G29    29.89S
CYPRESS HILLS    N/A     68  55  64 W3          N/A
VAL MARIE        N/A     82  57  42 SW7         N/A
ROCKGLEN         N/A     82  55  39 SE13G18     N/A
$$


USA.gov is the U.S. government's official web portal to all federal, state and local government web resources and services.